User: anonymous   Login
Location: Unspecified
(0.0000°N, 0.0000°E)
Time: 03:06:21
(UTC+02:00)
Language:

Resurs 1-3 - Orbit

View from above orbital plane
View from above orbital plane
View from above satellite
View from above satellite

Ground track
Ground track

The orbit data is extracted from the following two-line orbital elements,

1 23342U 94074A   15108.50654434  .00000915  00000-0  13161-3 0  9994
2 23342 098.1549 127.9544 0001971 102.9642 058.7344 14.78868516100901
Epoch (UTC): 18 April 2015 12:09:25
Eccentricity: 0.0001971
inclination: 98.1549°
perigee height: 631 km
apogee height: 634 km
right ascension of ascending node: 127.9544°
argument of perigee: 102.9642°
revolutions per day: 14.78868516
mean anomaly at epoch: 58.7344°
orbit number at epoch: 10090

The dashed part of the orbit path shows where the satellite is in the earth's shadow,  

DLR